Flag for Switzerland Weather past 2 weeks in Köniz, Bern, Switzerland

Now
32 °F

Clear.


Feels Like: 32 °F
Forecast: 37 / 61 °F
Wind: 1 mph from North

Location: Bern / Belp


UV Index: 0 (Low)

Visibility: 10 mi


Pressure: 29.71 "Hg

Humidity: 100%

Dew point: 32 °F

Location of KönizLocation

Historic Weather in Köniz

°F

Köniz temperature yesterday

Maximum temperature yesterday: 48 °F (at 2:50 PM)
Minimum temperature yesterday: 30 °F (at 3:20 AM)
Average temperature yesterday: 39 °F

Past Weeks' High & Low Weather Summary

 TemperatureHumidityPressure
High72 °F (Apr 7, 5:20 PM)100% (Apr 5, 8:20 AM)30.30 "Hg (Apr 5, 8:20 AM)
Low27 °F (Apr 17, 5:50 AM)22% (Apr 9, 5:20 PM)29.74 "Hg (Apr 19, 4:20 PM)
Average49 °F71%30.07 "Hg
* Reported Apr 5 4:20 AM — Apr 20 4:50 AM, Köniz, Weather by CustomWeather, © 2014

Note: Actual official high and low records may vary slightly from our data, if they occured in-between our weather recording intervals... More about our weather records

Advertising

Historic Weather Conditions — Data for Previous 24 hours

 ConditionsComfort  
Time TempWeatherWind HumidityBarometerVisibility
4:50 AM
Apr 20
32 °FChilly.1 mph100%29.74 "Hg3 mi
4:20 AM34 °FFog.1 mph93%29.74 "Hg3 mi
3:50 AM34 °FPassing clouds.1 mph100%29.74 "Hg5 mi
3:20 AM34 °FOvercast.1 mph100%29.74 "Hg3 mi
2:50 AM34 °FPassing clouds.1 mph100%29.74 "Hg6 mi
2:20 AM34 °FChilly.1 mph100%29.74 "Hg4 mi
1:50 AM34 °FChilly.2 mph100%29.74 "Hg3 mi
1:20 AM32 °FChilly.1 mph100%29.74 "Hg4 mi
12:50 AM34 °FFog.1 mph100%29.74 "Hg3 mi
12:20 AM34 °FChilly.1 mph100%29.74 "Hg4 mi
11:50 PM
Apr 19
36 °FChilly.2 mph93%29.74 "Hg4 mi
11:20 PM37 °FChilly.2 mph93%29.74 "Hg5 mi
10:50 PM41 °FPassing clouds.No wind93%29.74 "HgN/A
10:20 PM43 °FOvercast.1 mph87%29.77 "HgN/A
9:50 PM43 °FOvercast.1 mph87%29.77 "HgN/A
9:20 PM43 °FPartly sunny.3 mph87%29.77 "HgN/A
8:50 PM45 °FPartly sunny.3 mph81%29.77 "HgN/A
8:20 PM45 °FPartly sunny.3 mph76%29.77 "HgN/A
7:50 PM45 °FBroken clouds.2 mph76%29.77 "HgN/A
7:20 PM45 °FBroken clouds.3 mph76%29.77 "HgN/A
6:50 PM45 °FPartly sunny.5 mph76%29.77 "HgN/A
6:20 PM45 °FBroken clouds.5 mph71%29.77 "HgN/A
5:50 PM45 °FBroken clouds.6 mph76%29.77 "HgN/A
5:20 PM45 °FBroken clouds.7 mph76%29.74 "HgN/A
4:50 PM45 °FBroken clouds.8 mph71%29.74 "HgN/A
4:20 PM45 °FBroken clouds.8 mph71%29.74 "HgN/A
3:50 PM45 °FBroken clouds.8 mph71%29.77 "HgN/A
3:20 PM46 °FBroken clouds.6 mph66%29.77 "HgN/A
2:50 PM48 °FBroken clouds.10 mph71%29.77 "HgN/A
2:20 PM46 °FBroken clouds.8 mph66%29.77 "HgN/A
1:50 PM43 °FBroken clouds.9 mph71%29.77 "HgN/A
1:20 PM45 °FPartly sunny.7 mph76%29.77 "HgN/A
12:50 PM43 °FBroken clouds.6 mph71%29.77 "HgN/A
12:20 PM43 °FBroken clouds.6 mph81%29.77 "HgN/A
11:50 AM39 °FBroken clouds.3 mph87%29.77 "HgN/A
11:20 AM39 °FPartly sunny.8 mph87%29.77 "HgN/A
10:50 AM39 °FBroken clouds.5 mph81%29.77 "HgN/A
10:20 AM39 °FScattered showers. Partly sunny.3 mph87%29.77 "HgN/A
9:50 AM39 °FPartly sunny.5 mph81%29.77 "HgN/A
9:20 AM39 °FPartly sunny.6 mph87%29.77 "HgN/A
8:50 AM39 °FPartly sunny.6 mph87%29.80 "HgN/A
8:20 AM37 °FBroken clouds.2 mph93%29.80 "HgN/A
7:50 AM36 °FPartly sunny.5 mph93%29.80 "HgN/A
7:20 AM36 °FPassing clouds.7 mph93%29.80 "HgN/A
6:50 AM34 °FPartly cloudy.7 mph100%29.80 "HgN/A
6:20 AM34 °FPartly cloudy.6 mph100%29.80 "HgN/A
Weather by CustomWeather, © 2014

See weather overview